[[{"header":{"parameterUnit":"m.s-1","parameterCategory":2,"la1":30.2991,"la2":30.254,"lo1":-89.0895,"lo2":-89.0444,"dy":0.0017,"dx":0.0017,"nx":28,"ny":28,"refTime":"2023-09-18T21:00:00:Z","depth":"0","parameterNumber":2,"parameterNumberName":"U-component_of_CURRENTS"},"data":[0,0,0,0,0,0,0,0,0,0,0,0,0,0,0,0,0,0,0,0,0,0,0,0,0,0,0,0,0,0,0,0,0,0,0,0,0,0,0,0,0,0,0,0,0,0,0,0,0,0,0,0,0,0,0,0,0,0,-0.2098,-0.2099,0,-0.2116,-0.2116,-0.2115,-0.2063,-0.2062,-0.2061,-0.206,-0.1948,-0.1946,-0.1944,0,0,0,0,0,0,0,0,0,0,0,0,0,-0.195,-0.1953,-0.2098,-0.2099,-0.21,-0.2116,-0.2116,-0.2115,-0.2063,-0.2062,-0.2061,-0.206,-0.1949,-0.1946,-0.1944,0,0,0,0,0,0,0,0,0,0,0,0,0,-0.1988,-0.1954,-0.2098,-0.2082,-0.2081,-0.2116,-0.2116,-0.2115,-0.2063,-0.2062,-0.206,-0.2059,-0.195,-0.1947,-0.1944,-0.1949,0,0,-0.1934,-0.1932,0,0,0,0,0,0,0,0,-0.1986,-0.1993,-0.2083,-0.2083,-0.2083,-0.2093,-0.2023,-0.2056,-0.2063,-0.2061,-0.206,-0.2059,-0.1991,-0.1984,-0.1981,-0.1944,-0.1939,-0.1933,-0.1931,-0.193,-0.1929,0,0,0,0,0,0,0,-0.1984,-0.1991,-0.2097,-0.2085,-0.2084,-0.2051,-0.2055,-0.2029,-0.2024,-0.2061,-0.2059,-0.2075,-0.1989,-0.1984,-0.1977,-0.1937,-0.1933,-0.193,-0.1928,-0.1927,-0.1915,-0.1916,0,0,0,0,0,0,-0.2004,-0.199,-0.2096,-0.2098,-0.204,-0.2056,-0.206,-0.2084,-0.2027,-0.2021,-0.2076,-0.2073,-0.199,-0.1981,-0.1973,-0.1997,-0.193,-0.1927,-0.1925,-0.1913,-0.1915,-0.1917,0,0,0,0,0,0,-0.2001,-0.2014,-0.2096,-0.205,-0.2059,-0.2061,-0.2088,-0.2085,-0.2082,-0.2042,-0.2031,-0.2077,-0.1989,-0.1978,-0.1962,-0.1991,-0.1925,-0.1922,-0.1911,-0.1914,-0.1916,-0.2031,0,0,0,0,0,0,-0.1997,-0.2013,-0.2029,-0.2052,-0.2063,-0.213,-0.209,-0.2087,-0.2098,-0.2093,-0.2039,-0.2027,-0.1987,-0.1967,-0.1959,-0.1985,-0.192,-0.1909,-0.1912,-0.1915,-0.2025,-0.2037,-0.2047,0,0,0,0,0,-0.1992,-0.2028,-0.203,-0.2042,-0.2088,-0.2133,-0.2135,-0.2124,-0.2099,-0.2112,-0.2074,-0.2029,-0.1981,-0.1966,-0.1956,-0.1982,-0.1908,-0.1912,-0.1915,-0.202,-0.2035,-0.2047,0,0,0,0,0,0,-0.1966,-0.2028,-0.2029,-0.208,-0.2111,-0.2127,-0.214,-0.2133,-0.2115,-0.21,-0.2047,-0.2034,-0.2033,-0.1994,-0.198,-0.1989,-0.1938,-0.194,-0.2022,-0.2035,-0.2046,-0.2019,-0.1917,0,0,0,0,0,-0.1974,-0.2019,-0.2064,-0.2103,-0.2121,-0.2129,-0.2142,-0.2141,-0.2137,-0.2127,-0.2094,-0.2058,-0.2043,-0.2027,-0.2003,-0.2005,-0.1928,-0.2017,-0.2028,-0.2038,-0.201,-0.192,-0.192,-0.1929,-0.1929,-0.1929,0,0,-0.1979,-0.2016,-0.2042,-0.2101,-0.2116,-0.2153,-0.2131,-0.2163,-0.2181,-0.2117,-0.2116,-0.2095,-0.2053,-0.206,-0.2056,-0.2028,-0.2004,-0.2042,-0.2051,-0.2017,-0.1924,-0.1922,-0.1921,-0.1932,-0.1931,-0.1931,0,0,-0.2007,-0.2041,-0.2082,-0.2116,-0.2159,-0.2173,-0.2188,-0.2212,-0.2206,-0.222,-0.2179,-0.2173,-0.2147,-0.2126,-0.211,-0.2166,-0.2067,-0.2168,-0.2197,-0.2113,-0.211,-0.2106,-0.204,-0.2029,-0.2171,-0.2172,-0.2172,0,-0.1995,-0.206,-0.2099,-0.2142,-0.2161,-0.2186,-0.2215,-0.2234,-0.2246,-0.2223,-0.2231,-0.2184,-0.2175,-0.2154,-0.2195,-0.2189,-0.2119,-0.2154,-0.2124,-0.2119,-0.2113,-0.2045,-0.2032,-0.2178,-0.2177,-0.2176,-0.2176,0,-0.2058,-0.2099,-0.2127,-0.2188,-0.2216,-0.2253,-0.2287,-0.2298,-0.2296,-0.2291,-0.2273,-0.2268,-0.2222,-0.2253,-0.2249,-0.2218,-0.2177,-0.2151,-0.2085,-0.2118,-0.2046,-0.203,-0.2186,-0.2184,-0.2182,-0.2181,0,0,-0.2013,-0.2145,-0.2144,-0.2156,-0.2236,-0.2247,-0.2292,-0.2303,-0.2268,-0.2311,-0.2252,-0.2305,-0.2276,-0.2258,-0.2255,-0.2218,-0.2173,-0.218,-0.2173,-0.2105,-0.1981,-0.1946,-0.1925,-0.2129,-0.2126,-0.2124,-0.1958,0,-0.2024,-0.2109,-0.2172,-0.2208,-0.2233,-0.2267,-0.2283,-0.2292,-0.2288,-0.2243,-0.2252,-0.2206,-0.2287,-0.225,-0.2242,-0.2169,-0.213,-0.222,-0.1964,-0.1956,-0.1913,-0.1904,-0.1814,-0.1657,-0.1942,-0.1939,-0.1937,0,-0.202,-0.2078,-0.2142,-0.2169,-0.2176,-0.2202,-0.2169,-0.2186,-0.2161,-0.2144,-0.2131,-0.2115,-0.2105,-0.2141,-0.206,-0.2106,-0.2053,-0.2011,-0.2002,-0.1904,-0.189,-0.1663,-0.1616,-0.1599,-0.1911,-0.1913,-0.1915,0,-0.1912,-0.2012,-0.2054,-0.2081,-0.2151,-0.2142,-0.2148,-0.2137,-0.2105,-0.2054,-0.2011,-0.1996,-0.1962,-0.1912,-0.1918,-0.1948,-0.179,-0.1804,-0.1722,-0.1719,-0.1556,-0.1543,-0.1444,-0.17,-0.17,-0.1701,-0.1701,0,-0.1865,-0.187,-0.2007,-0.2017,-0.1987,-0.2055,-0.1988,-0.1985,-0.1962,-0.1904,-0.194,-0.189,-0.1897,-0.1845,-0.1837,-0.1744,-0.1724,-0.17,-0.166,-0.1601,-0.1595,-0.1502,-0.1531,-0.1694,-0.1696,-0.1697,-0.1698,0,-0.172,-0.1836,-0.1845,-0.1929,-0.1937,-0.1895,-0.1891,-0.1848,-0.1849,-0.1773,-0.1754,-0.1768,-0.1708,-0.1715,-0.1613,-0.1623,-0.1491,-0.1499,-0.1454,-0.1411,-0.1323,-0.1363,-0.119,-0.1163,-0.1347,-0.1345,-0.1343,0,-0.1669,-0.168,-0.1742,-0.1741,-0.1777,-0.1752,-0.1733,-0.1757,-0.1734,-0.1705,-0.1665,-0.1609,-0.1568,-0.1445,-0.1411,-0.1332,-0.1375,-0.1213,-0.1265,-0.1282,-0.1295,-0.1341,-0.1336,-0.1103,-0.11,-0.1097,-0.1094,0,-0.1537,-0.1562,-0.1583,-0.1587,-0.1584,-0.1563,-0.156,-0.153,-0.1565,-0.1527,-0.1483,-0.1439,-0.1358,-0.1245,-0.1177,-0.1139,-0.1175,-0.115,-0.1145,-0.1072,-0.1127,-0.1094,-0.1281,-0.1068,-0.1071,-0.1073,-0.1074,-0.1075,-0.1417,-0.1393,-0.1437,-0.1417,-0.1416,-0.1395,-0.133,-0.1362,-0.1311,-0.1259,-0.1297,-0.1204,-0.1129,-0.1015,-0.0981,-0.0884,-0.097,-0.0853,-0.0891,-0.093,-0.0927,-0.1082,-0.085,-0.0851,-0.0853,-0.0854,-0.0854,0,-0.1295,-0.1293,-0.1272,-0.126,-0.1215,-0.1257,-0.123,-0.117,-0.1098,-0.1088,-0.1035,-0.0926,-0.0808,-0.0772,-0.0675,-0.0635,-0.0654,-0.0633,-0.0665,-0.0667,-0.0746,-0.0762,-0.0525,-0.0525,-0.0525,-0.0525,-0.0525,-0.0525,-0.1238,-0.1191,-0.119,-0.109,-0.1071,-0.0978,-0.0941,-0.0874,-0.0842,-0.0728,-0.0673,-0.0627,-0.0608,-0.0596,-0.0527,-0.0507,-0.0531,-0.0496,-0.0562,-0.0622,-0.0647,-0.067,-0.0689,-0.0442,-0.0442,-0.0434,-0.0434,-0.0434]},{"header":{"parameterUnit":"m.s-1","parameterCategory":2,"la1":30.2991,"la2":30.254,"lo1":-89.0895,"lo2":-89.0444,"dy":0.0017,"dx":0.0017,"nx":28,"ny":28,"refTime":"2023-09-18T21:00:00:Z","depth":"0","parameterNumber":3,"parameterNumberName":"V-component_of_CURRENTS"},"data":[0,0,0,0,0,0,0,0,0,0,0,0,0,0,0,0,0,0,0,0,0,0,0,0,0,0,0,0,0,0,0,0,0,0,0,0,0,0,0,0,0,0,0,0,0,0,0,0,0,0,0,0,0,0,0,0,0,0,0.0008,0.0009,0,0.0035,0.0035,0.0035,0.0046,0.0046,0.0046,0.0046,0.0074,0.0075,0.0075,0,0,0,0,0,0,0,0,0,0,0,0,0,-0.0032,-0.0032,0.0008,0.0009,0.0009,0.0035,0.0035,0.0035,0.0045,0.0046,0.0046,0.0046,0.0074,0.0075,0.0075,0,0,0,0,0,0,0,0,0,0,0,0,0,-0.0014,-0.0031,0.0008,0.002,0.0022,0.0035,0.0035,0.0035,0.0045,0.0046,0.0046,0.0046,0.0074,0.0075,0.0075,0.0073,0,0,0.0078,0.0078,0,0,0,0,0,0,0,0,-0.0015,-0.0013,0.0018,0.0019,0.0021,0.004,0.0031,0.0049,0.0045,0.0033,0.0046,0.0047,0.0065,0.0066,0.0066,0.0075,0.0076,0.0078,0.0078,0.0079,0.0079,0,0,0,0,0,0,0,-0.0016,-0.0014,0.0015,0.0018,0.0021,0.0025,0.0028,0.0034,0.0044,0.0034,0.0036,0.0044,0.0065,0.0065,0.0067,0.0076,0.0078,0.0079,0.0079,0.0079,0.0123,0.0124,0,0,0,0,0,0,-0.0013,-0.0015,0.0015,0.0017,0.0007,0.0026,0.0028,0.0031,0.0044,0.0047,0.0043,0.0044,0.0064,0.0066,0.0068,0.0075,0.0079,0.0079,0.008,0.0123,0.0124,0.0124,0,0,0,0,0,0,-0.0015,-0.0011,0.0014,0.0004,0.0008,0.0026,0.0029,0.0031,0.0033,0.0052,0.0054,0.0044,0.0064,0.0067,0.0075,0.0076,0.008,0.0081,0.0122,0.0123,0.0124,0.0083,0,0,0,0,0,0,-0.0016,-0.0012,-0.0016,0.0004,0.0009,0.0015,0.0029,0.0032,0.0039,0.004,0.0053,0.0056,0.0064,0.0074,0.0076,0.0077,0.0081,0.0121,0.0122,0.0124,0.0084,0.0083,0.0082,0,0,0,0,0,-0.0018,-0.0027,-0.0017,-0.0013,0.0005,0.0015,0.0017,0.0029,0.0039,0.0033,0.0048,0.0055,0.0085,0.0075,0.0077,0.0078,0.012,0.0122,0.0124,0.0084,0.0083,0.0082,0,0,0,0,0,0,-0.0049,-0.0026,-0.0014,-0.0017,-0.0002,0.0018,0.0011,0.0028,0.0034,0.0035,0.0054,0.0058,0.0067,0.0083,0.0072,0.0099,0.0108,0.011,0.0077,0.0076,0.0075,0.0061,0.0082,0,0,0,0,0,-0.0056,-0.0056,-0.0031,-0.0033,-0.003,-0.0008,-0.0004,0.001,0.0023,0.0026,0.0039,0.0059,0.0075,0.0083,0.0095,0.0104,0.0114,0.0112,0.0111,0.011,0.0103,0.0125,0.0125,0.013,0.013,0.0129,0,0,-0.0065,-0.0054,-0.0052,-0.0039,-0.0031,-0.004,-0.0007,-0.0002,-0.0004,0.0028,0.0022,0.005,0.0077,0.0086,0.0093,0.0099,0.0113,0.0112,0.0111,0.0104,0.0127,0.0126,0.0125,0.0131,0.013,0.013,0,0,-0.0098,-0.0079,-0.0099,-0.0095,-0.0082,-0.0062,-0.006,-0.0039,-0.0029,-0.002,0.0006,0.0036,0.0053,0.0077,0.0091,0.0097,0.0105,0.0106,0.0088,0.011,0.0109,0.0108,0.0109,0.0109,0.0108,0.0108,0.0108,0,-0.0117,-0.0135,-0.0102,-0.0129,-0.0128,-0.0075,-0.0098,-0.008,-0.0056,-0.0041,-0.0027,0.0027,0.0049,0.0075,0.0078,0.0092,0.0097,0.0084,0.0106,0.0106,0.0106,0.0107,0.0107,0.0106,0.0106,0.0107,0.0107,0,-0.0166,-0.0188,-0.0201,-0.0212,-0.0202,-0.0211,-0.0176,-0.0159,-0.0125,-0.0096,-0.0059,-0.0016,0.002,0.004,0.0055,0.0076,0.0075,0.0097,0.0101,0.0102,0.0104,0.0105,0.0104,0.0104,0.0105,0.0105,0,0,-0.0202,-0.0232,-0.024,-0.026,-0.0247,-0.0241,-0.0234,-0.0205,-0.0191,-0.0145,-0.0128,-0.0073,-0.0029,-0.0009,0.0031,0.0056,0.0061,0.0071,0.0073,0.0057,0.0088,0.0128,0.0133,0.0081,0.0081,0.0081,0.0084,0,-0.0259,-0.0325,-0.0313,-0.0357,-0.0387,-0.0334,-0.0328,-0.0287,-0.024,-0.0209,-0.0133,-0.0104,-0.0053,-0.0032,0.0003,0.0044,0.0063,0.0057,0.0102,0.0103,0.0127,0.0136,0.0165,0.0174,0.0085,0.0085,0.0085,0,-0.0325,-0.0356,-0.0418,-0.0431,-0.0434,-0.044,-0.0398,-0.0386,-0.0319,-0.0282,-0.0221,-0.0165,-0.0111,-0.0071,0.0004,-0.0006,0.0032,0.0069,0.007,0.0122,0.0146,0.0163,0.0179,0.0255,0.0087,0.0087,0.0087,0,-0.0378,-0.043,-0.0475,-0.0486,-0.0487,-0.0487,-0.0468,-0.041,-0.0389,-0.033,-0.0304,-0.0225,-0.0186,-0.0121,-0.0024,-0.0022,0.0051,0.0066,0.0138,0.014,0.0182,0.0188,0.0266,0.0109,0.0109,0.0109,0.0109,0,-0.0453,-0.0491,-0.0505,-0.0536,-0.056,-0.0538,-0.0538,-0.0504,-0.0456,-0.0429,-0.0347,-0.0306,-0.0196,-0.0125,-0.0052,0.0052,0.0034,0.0131,0.0149,0.0169,0.0174,0.0257,0.0283,0.011,0.0109,0.0109,0.0109,0,-0.0513,-0.0533,-0.0582,-0.0594,-0.0597,-0.0609,-0.0591,-0.0582,-0.0532,-0.0499,-0.0484,-0.0377,-0.0277,-0.0162,-0.0055,0.0022,0.0161,0.0151,0.016,0.018,0.0316,0.0339,0.0408,0.0459,0.0214,0.0215,0.0216,0,-0.0549,-0.0588,-0.0621,-0.0642,-0.0653,-0.0664,-0.0666,-0.0627,-0.061,-0.0531,-0.0517,-0.0414,-0.0313,-0.0137,0.0012,0.0147,0.0208,0.0242,0.0264,0.033,0.0368,0.0369,0.0406,0.0292,0.0294,0.0295,0.0296,0,-0.0602,-0.0612,-0.0643,-0.069,-0.0713,-0.0729,-0.073,-0.0727,-0.0667,-0.0625,-0.0544,-0.0462,-0.0265,-0.0071,0.0115,0.0194,0.0301,0.0271,0.0344,0.0442,0.0442,0.0498,0.0266,0.0307,0.0305,0.0305,0.0304,0.0304,-0.062,-0.0651,-0.0688,-0.0727,-0.0756,-0.0778,-0.078,-0.0759,-0.0728,-0.0628,-0.0559,-0.0356,-0.012,0.0162,0.0245,0.0437,0.04,0.0491,0.051,0.0502,0.0569,0.0354,0.0421,0.0421,0.042,0.042,0.042,0,-0.0634,-0.0672,-0.0716,-0.0766,-0.0795,-0.08,-0.0802,-0.0774,-0.0726,-0.0586,-0.0475,-0.0057,0.0142,0.0365,0.0597,0.0681,0.0685,0.071,0.0719,0.0746,0.0564,0.0589,0.0691,0.069,0.069,0.069,0.069,0.069,-0.0643,-0.0691,-0.072,-0.0781,-0.0809,-0.0824,-0.0817,-0.0763,-0.0646,-0.0358,-0.0041,0.0211,0.0569,0.0719,0.0886,0.0888,0.0958,0.0928,0.097,0.0849,0.083,0.0812,0.0843,0.0996,0.0997,0.1149,0.115,0.1151]}],[{"header":{"parameterUnit":"m.s-1","parameterCategory":2,"la1":30.2991,"la2":30.254,"lo1":-89.0895,"lo2":-89.0444,"dy":0.0017,"dx":0.0017,"nx":28,"ny":28,"refTime":"2023-09-18T21:00:00:Z","depth":"2","parameterNumber":2,"parameterNumberName":"U-component_of_CURRENTS"},"data":[0,0,0,0,0,0,0,0,0,0,0,0,0,0,0,0,0,0,0,0,0,0,0,0,0,0,0,0,0,0,0,0,0,0,0,0,0,0,0,0,0,0,0,0,0,0,0,0,0,0,0,0,0,0,0,0,0,0,-0.1686,-0.1687,0,-0.1762,-0.1762,-0.1763,-0.1869,-0.1871,-0.1873,-0.1875,-0.195,-0.195,-0.195,0,0,0,0,0,0,0,0,0,0,0,0,0,-0.1586,-0.1587,-0.1686,-0.1687,-0.1689,-0.1762,-0.1762,-0.1763,-0.1868,-0.1871,-0.1874,-0.1876,-0.195,-0.195,-0.195,0,0,0,0,0,0,0,0,0,0,0,0,0,-0.1638,-0.1588,-0.1686,-0.1753,-0.176,-0.1762,-0.1762,-0.1763,-0.1868,-0.1871,-0.1874,-0.1877,-0.195,-0.195,-0.195,-0.1883,0,0,-0.1949,-0.1949,0,0,0,0,0,0,0,0,-0.1635,-0.1641,-0.1742,-0.1749,-0.1757,-0.1813,-0.1755,-0.1805,-0.1867,-0.1822,-0.1875,-0.1879,-0.1904,-0.1908,-0.1909,-0.1886,-0.1889,-0.1949,-0.1949,-0.1949,-0.1949,0,0,0,0,0,0,0,-0.1631,-0.1638,-0.1712,-0.1743,-0.1752,-0.1764,-0.1775,-0.1764,-0.184,-0.1826,-0.1835,-0.185,-0.1908,-0.1908,-0.1911,-0.1891,-0.1949,-0.1949,-0.1949,-0.1949,-0.2006,-0.2008,0,0,0,0,0,0,-0.163,-0.1635,-0.1709,-0.1714,-0.1708,-0.1764,-0.1776,-0.1788,-0.1841,-0.1853,-0.1847,-0.1854,-0.1907,-0.1911,-0.1914,-0.2003,-0.1949,-0.1949,-0.1949,-0.2005,-0.2007,-0.2008,0,0,0,0,0,0,-0.1627,-0.1635,-0.1706,-0.168,-0.1691,-0.1763,-0.1775,-0.1788,-0.1824,-0.1857,-0.187,-0.1875,-0.191,-0.1915,-0.1989,-0.2001,-0.1949,-0.1949,-0.2003,-0.2005,-0.2008,-0.2075,0,0,0,0,0,0,-0.1624,-0.1634,-0.164,-0.168,-0.1692,-0.1759,-0.1773,-0.1787,-0.1828,-0.184,-0.1884,-0.1893,-0.1913,-0.1989,-0.1989,-0.2,-0.1949,-0.2001,-0.2004,-0.2007,-0.207,-0.2079,-0.2086,0,0,0,0,0,-0.162,-0.1632,-0.164,-0.1649,-0.17,-0.1762,-0.177,-0.1828,-0.1826,-0.1865,-0.1915,-0.1894,-0.2006,-0.1991,-0.199,-0.2001,-0.1999,-0.2003,-0.2007,-0.2067,-0.2077,-0.2086,0,0,0,0,0,0,-0.1603,-0.1644,-0.1655,-0.1681,-0.1737,-0.1783,-0.1807,-0.183,-0.1889,-0.1912,-0.1922,-0.1936,-0.1998,-0.1991,-0.1974,-0.2028,-0.1993,-0.1997,-0.2039,-0.2049,-0.2057,-0.2009,-0.1949,0,0,0,0,0,-0.1593,-0.1609,-0.1664,-0.1687,-0.1709,-0.1749,-0.1775,-0.1831,-0.1884,-0.1913,-0.1947,-0.1977,-0.1998,-0.2025,-0.2049,-0.2074,-0.2007,-0.2078,-0.2086,-0.2093,-0.2055,-0.1978,-0.1973,-0.202,-0.202,-0.202,0,0,-0.1593,-0.1616,-0.1628,-0.1683,-0.1713,-0.1764,-0.1774,-0.1845,-0.1898,-0.1907,-0.1986,-0.2007,-0.2013,-0.2069,-0.2092,-0.2074,-0.2054,-0.2098,-0.2103,-0.206,-0.198,-0.1975,-0.197,-0.2023,-0.2022,-0.2022,0,0,-0.1603,-0.1619,-0.1639,-0.1686,-0.1759,-0.1794,-0.1818,-0.1893,-0.194,-0.2023,-0.2033,-0.2076,-0.2117,-0.2131,-0.2133,-0.2187,-0.2097,-0.2188,-0.2189,-0.2117,-0.2111,-0.2104,-0.2042,-0.2029,-0.2193,-0.2194,-0.2194,0,-0.1601,-0.1634,-0.1661,-0.1702,-0.1739,-0.1805,-0.1855,-0.1907,-0.201,-0.2013,-0.2076,-0.2095,-0.214,-0.2129,-0.2183,-0.22,-0.2134,-0.2156,-0.2122,-0.2115,-0.2107,-0.2043,-0.2029,-0.2197,-0.2197,-0.2196,-0.2196,0,-0.1632,-0.1669,-0.1688,-0.175,-0.1796,-0.1863,-0.1937,-0.1989,-0.2043,-0.2074,-0.2107,-0.2173,-0.2165,-0.2201,-0.2223,-0.218,-0.2144,-0.2139,-0.2089,-0.2105,-0.2039,-0.2022,-0.2202,-0.2201,-0.22,-0.2199,0,0,-0.1598,-0.169,-0.1696,-0.172,-0.1834,-0.1864,-0.1942,-0.1991,-0.1985,-0.2096,-0.2067,-0.2161,-0.2154,-0.2155,-0.2173,-0.2143,-0.2093,-0.2125,-0.2119,-0.2045,-0.1913,-0.188,-0.1858,-0.2063,-0.206,-0.2058,-0.1899,0,-0.1616,-0.1677,-0.173,-0.1795,-0.183,-0.1898,-0.194,-0.1993,-0.204,-0.2038,-0.2071,-0.2071,-0.2146,-0.214,-0.2127,-0.2091,-0.2045,-0.2135,-0.1921,-0.1914,-0.1867,-0.1836,-0.1731,-0.1577,-0.1882,-0.1879,-0.1877,0,-0.1625,-0.1661,-0.1724,-0.1779,-0.1795,-0.1842,-0.1862,-0.1916,-0.1925,-0.1949,-0.1945,-0.196,-0.1952,-0.201,-0.1932,-0.1976,-0.194,-0.1918,-0.1911,-0.1828,-0.1847,-0.1605,-0.1534,-0.1847,-0.185,-0.1852,-0.1854,0,-0.1558,-0.1647,-0.1684,-0.1716,-0.1799,-0.1808,-0.184,-0.1868,-0.1876,-0.1861,-0.1849,-0.1833,-0.183,-0.1777,-0.1806,-0.1835,-0.1694,-0.1724,-0.1646,-0.1644,-0.1483,-0.1471,-0.1615,-0.1615,-0.1615,-0.1616,-0.1616,0,-0.1551,-0.1571,-0.1646,-0.1664,-0.1665,-0.1741,-0.1728,-0.1749,-0.176,-0.1739,-0.1781,-0.1757,-0.1767,-0.1726,-0.1723,-0.1638,-0.1624,-0.1606,-0.1583,-0.1511,-0.1505,-0.1681,-0.1691,-0.161,-0.1611,-0.1612,-0.1613,0,-0.148,-0.1547,-0.1567,-0.1629,-0.1639,-0.1628,-0.1662,-0.1646,-0.1674,-0.1643,-0.1633,-0.1662,-0.1609,-0.1612,-0.1531,-0.153,-0.1453,-0.1421,-0.1352,-0.1323,-0.1465,-0.1481,-0.1275,-0.1272,-0.127,-0.1268,-0.1266,0,-0.1451,-0.1462,-0.1503,-0.1503,-0.1533,-0.1534,-0.1536,-0.1582,-0.1581,-0.159,-0.1567,-0.1527,-0.1493,-0.138,-0.1339,-0.1254,-0.1349,-0.1122,-0.1168,-0.1423,-0.1421,-0.1441,-0.146,-0.0991,-0.0987,-0.0984,-0.0981,0,-0.1373,-0.1389,-0.1402,-0.14,-0.1405,-0.1402,-0.1419,-0.1406,-0.1461,-0.1443,-0.1418,-0.1382,-0.1301,-0.1174,-0.1096,-0.1055,-0.1133,-0.1055,-0.1275,-0.1119,-0.1148,-0.1151,-0.1178,-0.0953,-0.0956,-0.0958,-0.096,-0.0961,-0.1291,-0.1274,-0.1291,-0.128,-0.1285,-0.1276,-0.1235,-0.127,-0.1245,-0.1219,-0.1251,-0.1158,-0.1135,-0.0945,-0.0876,-0.0828,-0.0921,-0.0889,-0.09,-0.0915,-0.0936,-0.0962,-0.0735,-0.0737,-0.0738,-0.0739,-0.074,0,-0.1189,-0.1186,-0.117,-0.1157,-0.1125,-0.1164,-0.1156,-0.1111,-0.1059,-0.1053,-0.1008,-0.0863,-0.0757,-0.0738,-0.0607,-0.0583,-0.06,-0.0567,-0.059,-0.0617,-0.0642,-0.0652,-0.0374,-0.0373,-0.0372,-0.0371,0,0,-0.1137,-0.1093,-0.1091,-0.1007,-0.0995,-0.0919,-0.0892,-0.0848,-0.0819,-0.0746,-0.0691,-0.0717,-0.0708,-0.0543,-0.05,-0.041,-0.0515,-0.0388,-0.0679,-0.0733,-0.0757,-0.0821,-0.0867,0,0,0,0,0]},{"header":{"parameterUnit":"m.s-1","parameterCategory":2,"la1":30.2991,"la2":30.254,"lo1":-89.0895,"lo2":-89.0444,"dy":0.0017,"dx":0.0017,"nx":28,"ny":28,"refTime":"2023-09-18T21:00:00:Z","depth":"2","parameterNumber":3,"parameterNumberName":"V-component_of_CURRENTS"},"data":[0,0,0,0,0,0,0,0,0,0,0,0,0,0,0,0,0,0,0,0,0,0,0,0,0,0,0,0,0,0,0,0,0,0,0,0,0,0,0,0,0,0,0,0,0,0,0,0,0,0,0,0,0,0,0,0,0,0,-0.0237,-0.0237,0,-0.0225,-0.0224,-0.0224,-0.0127,-0.0125,-0.0123,-0.0121,-0.001,-0.0009,-0.0008,0,0,0,0,0,0,0,0,0,0,0,0,0,-0.02,-0.02,-0.0237,-0.0237,-0.0237,-0.0225,-0.0224,-0.0224,-0.0127,-0.0125,-0.0122,-0.012,-0.001,-0.0009,-0.0008,0,0,0,0,0,0,0,0,0,0,0,0,0,-0.0201,-0.02,-0.0236,-0.019,-0.0186,-0.0225,-0.0224,-0.0224,-0.0128,-0.0125,-0.0121,-0.0119,-0.0011,-0.0009,-0.0008,-0.006,0,0,-0.0003,-0.0002,0,0,0,0,0,0,0,0,-0.0201,-0.0202,-0.0197,-0.0193,-0.0189,-0.0177,-0.0171,-0.0165,-0.0128,-0.0146,-0.0121,-0.0117,-0.0062,-0.0056,-0.0056,-0.0055,-0.005,-0.0003,-0.0002,-0.0001,-0.0001,0,0,0,0,0,0,0,-0.0201,-0.0202,-0.0228,-0.0197,-0.0193,-0.0178,-0.0174,-0.0169,-0.0116,-0.0144,-0.0138,-0.0144,-0.0058,-0.0058,-0.0053,-0.0048,-0.0003,-0.0001,-0.0001,0.0,0.0069,0.007,0,0,0,0,0,0,-0.0212,-0.0202,-0.0228,-0.0228,-0.0192,-0.0182,-0.0177,-0.0181,-0.0118,-0.0108,-0.0146,-0.0139,-0.0062,-0.0055,-0.0048,0.0003,-0.0001,0.0,0.0001,0.0068,0.007,0.0071,0,0,0,0,0,0,-0.0212,-0.0215,-0.0229,-0.0218,-0.0219,-0.0186,-0.0191,-0.0183,-0.016,-0.0122,-0.0108,-0.013,-0.006,-0.0051,-0.0001,0.0004,0.0001,0.0002,0.0067,0.0069,0.007,0.0036,0,0,0,0,0,0,-0.0211,-0.0215,-0.0223,-0.0219,-0.022,-0.0243,-0.0194,-0.0185,-0.0172,-0.0161,-0.0104,-0.0092,-0.0056,-0.0003,0.0001,0.0006,0.0004,0.0066,0.0068,0.007,0.0036,0.0036,0.0036,0,0,0,0,0,-0.0209,-0.0229,-0.0223,-0.0226,-0.0231,-0.0244,-0.0243,-0.0207,-0.0174,-0.0172,-0.0108,-0.0092,0.0011,-0.0001,0.0003,0.0009,0.0065,0.0068,0.007,0.0036,0.0036,0.0036,0,0,0,0,0,0,-0.0212,-0.0222,-0.0214,-0.0234,-0.0237,-0.0228,-0.0232,-0.021,-0.0165,-0.0135,-0.009,-0.0074,-0.0027,-0.0006,-0.0021,0.0038,0.0043,0.0046,0.0016,0.0016,0.0016,-0.0016,0.0005,0,0,0,0,0,-0.0224,-0.0241,-0.0245,-0.0262,-0.0265,-0.0249,-0.025,-0.0219,-0.0186,-0.0162,-0.0122,-0.0066,-0.0025,0.0001,0.0037,0.0054,0.0063,0.0066,0.0066,0.0066,0.0046,0.0077,0.0077,0.0077,0.0077,0.0077,0,0,-0.0232,-0.0241,-0.025,-0.0265,-0.0262,-0.0271,-0.0239,-0.0231,-0.0219,-0.016,-0.012,-0.0071,-0.0019,0.002,0.0042,0.0044,0.0073,0.0068,0.0068,0.0047,0.0079,0.0078,0.0078,0.0079,0.0078,0.0078,0,0,-0.0264,-0.0263,-0.0289,-0.0295,-0.0293,-0.028,-0.0277,-0.0256,-0.0223,-0.0188,-0.0131,-0.0072,-0.0025,0.0021,0.0048,0.0064,0.007,0.0074,0.0046,0.0077,0.0076,0.0076,0.0087,0.0088,0.0076,0.0076,0.0075,0,-0.0271,-0.0305,-0.0298,-0.0322,-0.0327,-0.0285,-0.03,-0.0275,-0.0231,-0.0208,-0.0168,-0.0073,-0.0023,0.0022,0.0037,0.0062,0.0066,0.0039,0.0074,0.0074,0.0074,0.0086,0.0087,0.0074,0.0074,0.0074,0.0075,0,-0.0322,-0.0345,-0.036,-0.0373,-0.0373,-0.0379,-0.0346,-0.0321,-0.0268,-0.0235,-0.017,-0.0093,-0.0037,-0.0008,0.0019,0.0043,0.0041,0.0067,0.0065,0.0071,0.0084,0.0086,0.0072,0.0073,0.0073,0.0073,0,0,-0.0346,-0.0389,-0.0393,-0.0408,-0.0395,-0.0398,-0.0376,-0.0352,-0.0327,-0.0258,-0.0229,-0.0139,-0.0095,-0.0062,-0.0013,0.0015,0.0032,0.0029,0.0031,0.0023,0.0073,0.0107,0.0112,0.0054,0.0054,0.0054,0.0081,0,-0.0386,-0.0447,-0.0447,-0.0478,-0.0501,-0.0458,-0.0445,-0.0403,-0.0347,-0.0305,-0.0216,-0.0162,-0.0116,-0.008,-0.0047,0.0014,0.0034,0.002,0.0082,0.0084,0.01,0.0115,0.0119,0.0147,0.0083,0.0083,0.0083,0,-0.0434,-0.0468,-0.0519,-0.0532,-0.0534,-0.0537,-0.0498,-0.0477,-0.0408,-0.036,-0.0295,-0.0227,-0.0166,-0.0123,-0.0036,-0.0054,-0.0007,0.004,0.0043,0.0082,0.0121,0.0133,0.0153,0.0087,0.0087,0.0086,0.0086,0,-0.0464,-0.0511,-0.0553,-0.0562,-0.0568,-0.0569,-0.0553,-0.0496,-0.0468,-0.0401,-0.0363,-0.0282,-0.0222,-0.0159,-0.0049,-0.0053,0.004,0.0059,0.013,0.0132,0.0152,0.0156,0.0104,0.0104,0.0104,0.0104,0.0104,0,-0.0512,-0.0543,-0.0574,-0.0601,-0.0621,-0.0605,-0.0598,-0.0568,-0.0515,-0.0479,-0.0399,-0.0344,-0.023,-0.0149,-0.0074,0.0038,0.0028,0.0116,0.0144,0.0143,0.0145,0.0107,0.0107,0.0105,0.0104,0.0104,0.0104,0,-0.0546,-0.0574,-0.0619,-0.0641,-0.0647,-0.0656,-0.064,-0.0627,-0.0574,-0.0528,-0.0507,-0.0394,-0.0283,-0.0168,-0.0046,0.0023,0.0119,0.0158,0.014,0.0166,0.0187,0.0185,0.0223,0.0225,0.0226,0.0227,0.0228,0,-0.0575,-0.0608,-0.0648,-0.0669,-0.0687,-0.0697,-0.0699,-0.0662,-0.064,-0.0546,-0.0523,-0.0407,-0.0298,-0.011,0.0027,0.016,0.0157,0.0231,0.0237,0.0176,0.02,0.0196,0.0193,0.0247,0.0248,0.0249,0.0249,0,-0.0617,-0.0627,-0.0661,-0.0708,-0.0731,-0.0747,-0.0747,-0.0737,-0.0674,-0.0619,-0.0519,-0.0428,-0.0232,-0.0053,0.012,0.0193,0.021,0.0252,0.0204,0.0221,0.0203,0.0225,0.022,0.0256,0.0256,0.0255,0.0255,0.0254,-0.0632,-0.0661,-0.07,-0.0739,-0.0767,-0.0785,-0.0784,-0.0757,-0.0711,-0.0596,-0.0513,-0.0332,-0.0184,0.0102,0.02,0.0289,0.0283,0.0312,0.0308,0.0303,0.0306,0.0292,0.0361,0.0361,0.0361,0.0361,0.036,0,-0.0646,-0.0683,-0.0726,-0.0774,-0.0802,-0.0808,-0.0802,-0.0772,-0.0706,-0.0563,-0.0434,-0.0218,-0.0012,0.0133,0.0293,0.0372,0.0349,0.0375,0.0337,0.0331,0.0325,0.0326,0.0388,0.0388,0.0388,0.0388,0,0,-0.0657,-0.0703,-0.073,-0.0789,-0.0817,-0.083,-0.0819,-0.0759,-0.065,-0.0495,-0.0329,-0.0132,0.0045,0.0165,0.0256,0.0333,0.0302,0.0329,0.0302,0.024,0.0233,0.0289,0.0286,0,0,0,0,0]}],[{"header":{"parameterUnit":"m.s-1","parameterCategory":2,"la1":30.2991,"la2":30.254,"lo1":-89.0895,"lo2":-89.0444,"dy":0.0017,"dx":0.0017,"nx":28,"ny":28,"refTime":"2023-09-18T21:00:00:Z","depth":"4","parameterNumber":2,"parameterNumberName":"U-component_of_CURRENTS"},"data":[0,0,0,0,0,0,0,0,0,0,0,0,0,0,0,0,0,0,0,0,0,0,0,0,0,0,0,0,0,0,0,0,0,0,0,0,0,0,0,0,0,0,0,0,0,0,0,0,0,0,0,0,0,0,0,0,0,0,-0.0899,-0.0899,0,-0.0916,-0.0917,-0.0917,-0.0922,-0.0922,-0.0921,-0.0921,-0.0943,-0.0944,-0.0945,0,0,0,0,0,0,0,0,0,0,0,0,0,-0.0923,-0.0923,-0.0899,-0.0899,-0.0899,-0.0916,-0.0917,-0.0917,-0.0923,-0.0922,-0.0921,-0.0921,-0.0943,-0.0944,-0.0945,0,0,0,0,0,0,0,0,0,0,0,0,0,-0.0928,-0.0922,-0.0899,-0.09,-0.09,-0.0916,-0.0917,-0.0917,-0.0923,-0.0922,-0.0921,-0.092,-0.0942,-0.0944,-0.0946,-0.0972,0,0,-0.0951,-0.0951,0,0,0,0,0,0,0,0,-0.0928,-0.0928,-0.09,-0.09,-0.09,-0.0912,-0.0933,-0.0934,-0.0923,-0.0919,-0.0921,-0.092,-0.0931,-0.0933,-0.0945,-0.0973,-0.0974,-0.0951,-0.0952,-0.0952,-0.0953,0,0,0,0,0,0,0,-0.0927,-0.0927,-0.0911,-0.09,-0.0899,-0.0916,-0.0916,-0.0934,-0.0933,-0.092,-0.0919,-0.0913,-0.0931,-0.0944,-0.0946,-0.0974,-0.0951,-0.0952,-0.0953,-0.0954,-0.1045,-0.1047,0,0,0,0,0,0,-0.0913,-0.0927,-0.091,-0.0911,-0.0906,-0.0916,-0.0916,-0.0913,-0.0933,-0.0934,-0.0913,-0.0913,-0.0941,-0.0944,-0.0946,-0.0997,-0.0952,-0.0954,-0.0955,-0.1044,-0.1045,-0.1047,0,0,0,0,0,0,-0.0914,-0.0912,-0.091,-0.0915,-0.0915,-0.0915,-0.0912,-0.0914,-0.0935,-0.0927,-0.0929,-0.0934,-0.0941,-0.0944,-0.0963,-0.0997,-0.0955,-0.0956,-0.1042,-0.1044,-0.1046,-0.1086,0,0,0,0,0,0,-0.0915,-0.0912,-0.0921,-0.0914,-0.0914,-0.0921,-0.0913,-0.0914,-0.0929,-0.0929,-0.0945,-0.0946,-0.094,-0.096,-0.0964,-0.0998,-0.0957,-0.104,-0.1043,-0.1046,-0.1083,-0.1089,-0.1095,0,0,0,0,0,-0.0916,-0.0924,-0.0921,-0.0919,-0.0921,-0.0921,-0.0924,-0.0924,-0.0931,-0.0942,-0.095,-0.0946,-0.0981,-0.0962,-0.0967,-0.1002,-0.1039,-0.1042,-0.1045,-0.108,-0.1088,-0.1095,0,0,0,0,0,0,-0.0943,-0.0924,-0.0921,-0.0925,-0.0923,-0.092,-0.0934,-0.0936,-0.0955,-0.096,-0.0958,-0.0959,-0.0989,-0.0992,-0.0972,-0.1038,-0.1013,-0.1017,-0.1038,-0.1045,-0.1051,-0.104,-0.0959,0,0,0,0,0,-0.0951,-0.0948,-0.0936,-0.094,-0.0943,-0.0946,-0.0952,-0.095,-0.0956,-0.0965,-0.0973,-0.0989,-0.1008,-0.1021,-0.1032,-0.1069,-0.1057,-0.1098,-0.1104,-0.1109,-0.1104,-0.1111,-0.1116,-0.1058,-0.1058,-0.1058,0,0,-0.0958,-0.095,-0.0948,-0.0946,-0.0951,-0.0961,-0.095,-0.096,-0.0977,-0.0965,-0.1001,-0.1007,-0.102,-0.1054,-0.107,-0.1061,-0.1122,-0.1113,-0.1117,-0.1109,-0.1114,-0.112,-0.1125,-0.106,-0.1059,-0.1059,0,0,-0.0968,-0.0972,-0.0974,-0.098,-0.0982,-0.0983,-0.0989,-0.0994,-0.1009,-0.1028,-0.1034,-0.1041,-0.108,-0.1086,-0.1097,-0.1143,-0.1148,-0.1177,-0.1205,-0.1212,-0.1216,-0.122,-0.1217,-0.122,-0.1186,-0.1186,-0.1186,0,-0.0987,-0.0982,-0.0977,-0.0989,-0.0998,-0.0996,-0.101,-0.1029,-0.104,-0.1049,-0.104,-0.1081,-0.1084,-0.1125,-0.1148,-0.1153,-0.1169,-0.1175,-0.1218,-0.1221,-0.1224,-0.122,-0.1223,-0.1188,-0.1188,-0.1188,-0.1188,0,-0.0989,-0.1003,-0.1011,-0.1021,-0.1034,-0.1046,-0.1059,-0.1077,-0.1086,-0.1091,-0.1122,-0.1121,-0.114,-0.1159,-0.117,-0.1217,-0.1225,-0.1218,-0.1195,-0.1232,-0.1226,-0.1228,-0.1192,-0.1191,-0.119,-0.119,0,0,-0.0995,-0.1008,-0.1016,-0.1026,-0.1054,-0.1057,-0.1095,-0.1113,-0.1141,-0.1142,-0.1177,-0.1191,-0.119,-0.1203,-0.1224,-0.1239,-0.127,-0.1259,-0.1258,-0.1247,-0.1303,-0.1196,-0.1188,-0.1293,-0.1294,-0.1294,-0.1292,0,-0.1006,-0.1019,-0.1032,-0.1062,-0.1072,-0.1093,-0.1131,-0.115,-0.1172,-0.1208,-0.1202,-0.1239,-0.1214,-0.1243,-0.125,-0.1275,-0.1279,-0.1272,-0.1276,-0.1275,-0.1168,-0.1187,-0.1296,-0.1293,-0.1293,-0.1294,-0.1294,0,-0.1012,-0.1016,-0.1042,-0.1075,-0.1086,-0.1114,-0.1162,-0.1194,-0.1243,-0.1263,-0.1281,-0.1294,-0.1317,-0.1297,-0.1304,-0.1317,-0.1313,-0.1313,-0.1312,-0.1195,-0.1171,-0.1248,-0.1297,-0.1297,-0.1297,-0.1296,-0.1296,0,-0.1002,-0.1031,-0.1048,-0.1061,-0.1099,-0.1127,-0.1154,-0.1207,-0.124,-0.1311,-0.1333,-0.1357,-0.1368,-0.1369,-0.1337,-0.1351,-0.1342,-0.1347,-0.1233,-0.1225,-0.1305,-0.1301,-0.1341,-0.1341,-0.1341,-0.1341,-0.1341,0,-0.1007,-0.1025,-0.1047,-0.106,-0.1094,-0.1128,-0.1186,-0.1222,-0.1288,-0.1318,-0.1363,-0.1377,-0.1393,-0.138,-0.1365,-0.1284,-0.1344,-0.123,-0.1214,-0.1324,-0.1322,-0.1306,-0.1302,-0.1341,-0.1341,-0.1341,-0.1341,0,-0.0998,-0.1017,-0.1038,-0.1076,-0.1095,-0.1121,-0.1192,-0.1222,-0.1293,-0.134,-0.1362,-0.1399,-0.1371,-0.1354,-0.1348,-0.1287,-0.1246,-0.1203,-0.1311,-0.1304,-0.1128,-0.1126,-0.1091,-0.1087,-0.1084,-0.1081,-0.1079,0,-0.0981,-0.0992,-0.104,-0.1053,-0.1078,-0.1123,-0.1152,-0.1225,-0.1253,-0.1324,-0.133,-0.1339,-0.1341,-0.1228,-0.1234,-0.1174,-0.1151,-0.1131,-0.1134,-0.1112,-0.1101,-0.1105,-0.1108,-0.1074,-0.1073,-0.1072,-0.1071,0,-0.0941,-0.0976,-0.0989,-0.1019,-0.1052,-0.1082,-0.1126,-0.1143,-0.1212,-0.1285,-0.1258,-0.1232,-0.1193,-0.1157,-0.1103,-0.1066,-0.1152,-0.1097,-0.1104,-0.1107,-0.109,-0.1084,-0.1091,-0.106,-0.1061,-0.1062,-0.1063,0,-0.0903,-0.0908,-0.0932,-0.0952,-0.0994,-0.1006,-0.1051,-0.1058,-0.1091,-0.1167,-0.1151,-0.1152,-0.1182,-0.1098,-0.1055,-0.0999,-0.0987,-0.0962,-0.0977,-0.0989,-0.0951,-0.0915,-0.0811,0,0,0,0,0,-0.0843,-0.0836,-0.085,-0.0865,-0.091,-0.0929,-0.1003,-0.1047,-0.1121,-0.107,-0.1107,-0.1063,-0.0996,-0.1001,-0.0916,-0.1003,-0.0991,-0.0902,-0.0971,-0.0997,-0.101,-0.0971,0,0,0,0,0,0,-0.0799,-0.0809,-0.0814,-0.078,-0.0777,-0.081,-0.0854,-0.0913,-0.0894,-0.0972,-0.0936,-0.0988,-0.0933,-0.1007,-0.0885,-0.0884,-0.0905,-0.0908,-0.0904,-0.0989,-0.1001,-0.1012,-0.0977,0,0,0,0,0]},{"header":{"parameterUnit":"m.s-1","parameterCategory":2,"la1":30.2991,"la2":30.254,"lo1":-89.0895,"lo2":-89.0444,"dy":0.0017,"dx":0.0017,"nx":28,"ny":28,"refTime":"2023-09-18T21:00:00:Z","depth":"4","parameterNumber":3,"parameterNumberName":"V-component_of_CURRENTS"},"data":[0,0,0,0,0,0,0,0,0,0,0,0,0,0,0,0,0,0,0,0,0,0,0,0,0,0,0,0,0,0,0,0,0,0,0,0,0,0,0,0,0,0,0,0,0,0,0,0,0,0,0,0,0,0,0,0,0,0,-0.0281,-0.0281,0,-0.0293,-0.0293,-0.0293,-0.0279,-0.0278,-0.0278,-0.0277,-0.0271,-0.0271,-0.0271,0,0,0,0,0,0,0,0,0,0,0,0,0,-0.0225,-0.0226,-0.0281,-0.0281,-0.0281,-0.0293,-0.0293,-0.0293,-0.0279,-0.0278,-0.0278,-0.0277,-0.0271,-0.0271,-0.0271,0,0,0,0,0,0,0,0,0,0,0,0,0,-0.0243,-0.0227,-0.028,-0.0277,-0.0277,-0.0293,-0.0293,-0.0293,-0.0279,-0.0278,-0.0278,-0.0277,-0.0271,-0.0271,-0.0271,-0.0284,0,0,-0.0272,-0.0272,0,0,0,0,0,0,0,0,-0.0242,-0.0245,-0.0277,-0.0277,-0.0277,-0.0286,-0.0272,-0.029,-0.0279,-0.0276,-0.0277,-0.0277,-0.0276,-0.0276,-0.0277,-0.0284,-0.0284,-0.0272,-0.0272,-0.0273,-0.0273,0,0,0,0,0,0,0,-0.0241,-0.0244,-0.0284,-0.0277,-0.0278,-0.0269,-0.027,-0.0275,-0.0277,-0.0276,-0.0276,-0.028,-0.0275,-0.0277,-0.0277,-0.0284,-0.0272,-0.0273,-0.0273,-0.0273,-0.0305,-0.0306,0,0,0,0,0,0,-0.0245,-0.0243,-0.0283,-0.0284,-0.026,-0.027,-0.0272,-0.0282,-0.0277,-0.0277,-0.0281,-0.028,-0.0276,-0.0276,-0.0276,-0.0295,-0.0273,-0.0273,-0.0273,-0.0304,-0.0305,-0.0306,0,0,0,0,0,0,-0.0244,-0.0249,-0.0283,-0.0265,-0.0269,-0.0272,-0.0283,-0.0282,-0.0284,-0.0281,-0.028,-0.0283,-0.0276,-0.0276,-0.0284,-0.0294,-0.0273,-0.0273,-0.0304,-0.0305,-0.0306,-0.0329,0,0,0,0,0,0,-0.0242,-0.0248,-0.0258,-0.0266,-0.027,-0.0299,-0.0284,-0.0283,-0.0289,-0.0287,-0.0283,-0.0282,-0.0276,-0.0284,-0.0284,-0.0294,-0.0273,-0.0303,-0.0304,-0.0305,-0.0328,-0.0331,-0.0334,0,0,0,0,0,-0.024,-0.0256,-0.0258,-0.0263,-0.0283,-0.03,-0.0301,-0.03,-0.0289,-0.0297,-0.0292,-0.0282,-0.0292,-0.0285,-0.0285,-0.0295,-0.0302,-0.0304,-0.0305,-0.0326,-0.0331,-0.0334,0,0,0,0,0,0,-0.0236,-0.0257,-0.0259,-0.028,-0.0292,-0.0298,-0.0307,-0.0303,-0.0305,-0.0303,-0.0292,-0.0291,-0.0303,-0.0298,-0.0289,-0.0309,-0.0296,-0.0297,-0.0312,-0.0315,-0.0318,-0.0295,-0.0274,0,0,0,0,0,-0.0242,-0.0261,-0.0274,-0.0293,-0.0299,-0.0303,-0.0309,-0.0311,-0.0314,-0.0314,-0.031,-0.0308,-0.0311,-0.0311,-0.0316,-0.0326,-0.0286,-0.0333,-0.0336,-0.0339,-0.0321,-0.0264,-0.0259,-0.0311,-0.0311,-0.0311,0,0,-0.0247,-0.026,-0.0272,-0.0294,-0.0301,-0.0319,-0.0304,-0.0321,-0.0332,-0.0314,-0.0326,-0.0322,-0.0318,-0.033,-0.0335,-0.0325,-0.0308,-0.0341,-0.0343,-0.0324,-0.0264,-0.0259,-0.0254,-0.0312,-0.0312,-0.0312,0,0,-0.0268,-0.0278,-0.03,-0.0312,-0.033,-0.0335,-0.0341,-0.0351,-0.035,-0.0367,-0.0353,-0.035,-0.0364,-0.0353,-0.0351,-0.0374,-0.033,-0.0382,-0.0374,-0.0319,-0.0314,-0.0308,-0.0266,-0.0256,-0.0379,-0.038,-0.038,0,-0.027,-0.0303,-0.0308,-0.0329,-0.0341,-0.0343,-0.0364,-0.0369,-0.038,-0.0371,-0.0377,-0.0366,-0.0372,-0.0358,-0.0369,-0.0379,-0.0338,-0.0361,-0.032,-0.0314,-0.0308,-0.0266,-0.0255,-0.0381,-0.0381,-0.0381,-0.038,0,-0.0308,-0.0331,-0.0344,-0.0372,-0.0383,-0.0405,-0.0411,-0.0418,-0.0419,-0.0412,-0.0402,-0.04,-0.0383,-0.0394,-0.0392,-0.0355,-0.0337,-0.0332,-0.0305,-0.0303,-0.026,-0.0248,-0.0383,-0.0382,-0.0382,-0.0382,0,0,-0.0317,-0.0362,-0.0367,-0.0384,-0.0407,-0.0421,-0.0435,-0.0439,-0.043,-0.0434,-0.0408,-0.0419,-0.0392,-0.0386,-0.0375,-0.0332,-0.0274,-0.0312,-0.0308,-0.0259,-0.0146,-0.0154,-0.0142,-0.025,-0.0248,-0.0246,-0.0138,0,-0.0344,-0.0394,-0.0404,-0.0444,-0.0467,-0.0466,-0.0474,-0.0471,-0.0463,-0.0438,-0.041,-0.0392,-0.0396,-0.0382,-0.0339,-0.0288,-0.024,-0.0303,-0.0163,-0.0159,-0.0157,-0.0127,-0.0239,-0.0129,-0.0126,-0.0124,-0.0123,0,-0.0375,-0.0405,-0.0452,-0.0476,-0.0483,-0.0503,-0.05,-0.0506,-0.0466,-0.045,-0.0408,-0.0376,-0.0321,-0.0323,-0.0213,-0.0247,-0.0194,-0.0152,-0.0147,-0.0131,-0.0144,-0.0128,-0.01,-0.0102,-0.0104,-0.0105,-0.0107,0,-0.0388,-0.0433,-0.0473,-0.0485,-0.0514,-0.0524,-0.0532,-0.0509,-0.0499,-0.0444,-0.0418,-0.0344,-0.0306,-0.022,-0.0154,-0.0167,-0.0021,-0.0032,0.0014,0.0013,-0.0001,-0.0008,0.0065,0.0065,0.0065,0.0065,0.0064,0,-0.0414,-0.0444,-0.0485,-0.051,-0.0539,-0.0543,-0.055,-0.0542,-0.0505,-0.0475,-0.042,-0.0371,-0.0273,-0.0188,-0.0123,-0.0018,0.0004,0.0035,0.0051,-0.0019,-0.0029,0.0007,-0.0001,0.0069,0.0068,0.0067,0.0066,0,-0.0427,-0.0459,-0.0503,-0.0541,-0.0554,-0.0572,-0.0581,-0.0575,-0.0538,-0.0493,-0.047,-0.0374,-0.0259,-0.0166,-0.0026,0.0013,0.0114,0.0144,0.0064,0.007,0.0107,0.0096,0.0224,0.0224,0.0225,0.0226,0.0226,0,-0.0442,-0.047,-0.0527,-0.0554,-0.0579,-0.0603,-0.0617,-0.0599,-0.0581,-0.0493,-0.0464,-0.0345,-0.0274,-0.007,0.0011,0.0152,0.0157,0.0205,0.0161,0.0126,0.0128,0.0116,0.0104,0.0227,0.0228,0.0228,0.0228,0,-0.0461,-0.0483,-0.052,-0.0576,-0.0611,-0.0635,-0.0647,-0.063,-0.0584,-0.0552,-0.0423,-0.0312,-0.0181,-0.0049,0.0057,0.0149,0.0174,0.0213,0.0212,0.0171,0.0132,0.0131,0.0119,0.023,0.023,0.023,0.023,0,-0.0468,-0.0496,-0.0544,-0.0588,-0.0633,-0.0651,-0.0654,-0.0612,-0.0581,-0.0475,-0.0431,-0.0285,-0.0198,-0.0049,0.0047,0.0138,0.0154,0.0169,0.017,0.0168,0.0105,0.0044,0.0151,0,0,0,0,0,-0.0468,-0.0503,-0.055,-0.0601,-0.0643,-0.0664,-0.0666,-0.0654,-0.0603,-0.0508,-0.0461,-0.0331,-0.0152,-0.0073,0.0022,0.0029,0.014,0.0139,0.015,0.0244,0.0241,0.0174,0,0,0,0,0,0,-0.0471,-0.0519,-0.0547,-0.0597,-0.0629,-0.0669,-0.0668,-0.0637,-0.0569,-0.05,-0.0396,-0.0324,-0.0153,-0.0203,0.0021,0.0047,0.0063,0.0226,0.0227,0.0246,0.0243,0.0241,0.017,0,0,0,0,0]}]]